TimeEDT,TemperatureF,Dew PointF,Humidity,Sea Level PressureIn,VisibilityMPH,Wind Direction,Wind SpeedMPH,Gust SpeedMPH,PrecipitationIn,Events,Conditions,WindDirDegrees,DateUTC
12:03 AM,59.0,59.0,100,30.04,10.0,NE,11.5,-,N/A,,Light Drizzle,50,2013-07-02 04:03:00
12:08 AM,59.0,59.0,100,30.04,7.0,NE,11.5,-,N/A,,Light Drizzle,40,2013-07-02 04:08:00
12:53 AM,59.0,59.0,100,30.05,5.0,NE,9.2,-,N/A,,Light Drizzle,50,2013-07-02 04:53:00
12:58 AM,59.2,59.2,100,30.05,5.0,NE,10.4,-,0.01,,Light Drizzle,50,2013-07-02 04:58:00
1:08 AM,59.0,59.0,100,30.05,7.0,NE,9.2,-,N/A,,Light Drizzle,40,2013-07-02 05:08:00
1:13 AM,59.0,59.0,100,30.05,10.0,NE,9.2,-,N/A,,Light Drizzle,40,2013-07-02 05:13:00
1:17 AM,59.0,59.0,100,30.05,9.0,NE,10.4,-,N/A,,Overcast,40,2013-07-02 05:17:00
1:22 AM,59.0,59.0,100,30.05,6.0,NE,9.2,-,N/A,,Overcast,40,2013-07-02 05:22:00
1:25 AM,59.0,59.0,100,30.05,5.0,NE,9.2,-,N/A,,Light Drizzle,40,2013-07-02 05:25:00
1:50 AM,59.0,59.0,100,30.05,5.0,NE,10.4,-,N/A,,Light Drizzle,50,2013-07-02 05:50:00
1:58 AM,59.0,59.0,100,30.04,10.0,NE,11.5,-,0.02,,Light Drizzle,50,2013-07-02 05:58:00
2:05 AM,59.0,59.0,100,30.04,10.0,ENE,10.4,-,N/A,,Overcast,60,2013-07-02 06:05:00
2:20 AM,59.0,59.0,100,30.04,10.0,ENE,11.5,-,N/A,,Overcast,60,2013-07-02 06:20:00
2:25 AM,59.0,59.0,100,30.04,10.0,ENE,11.5,-,N/A,,Overcast,60,2013-07-02 06:25:00
2:58 AM,59.2,59.2,100,30.05,10.0,NE,9.2,-,0.00,,Overcast,50,2013-07-02 06:58:00
3:38 AM,59.0,59.0,100,30.04,10.0,NE,8.1,-,N/A,,Overcast,50,2013-07-02 07:38:00
3:58 AM,58.6,58.6,100,30.04,10.0,ENE,6.9,-,N/A,,Overcast,60,2013-07-02 07:58:00
4:58 AM,58.5,58.5,100,30.05,10.0,NE,6.9,-,N/A,,Overcast,50,2013-07-02 08:58:00
5:58 AM,58.3,58.3,100,30.05,10.0,ENE,6.9,-,N/A,,Overcast,60,2013-07-02 09:58:00
6:58 AM,58.8,58.8,100,30.07,10.0,East,5.8,-,N/A,,Overcast,80,2013-07-02 10:58:00
7:58 AM,59.9,59.9,100,30.06,10.0,East,6.9,-,N/A,,Overcast,80,2013-07-02 11:58:00
8:58 AM,63.3,63.1,99,30.08,10.0,ENE,5.8,-,N/A,,Overcast,60,2013-07-02 12:58:00
9:13 AM,62.6,62.6,100,30.08,10.0,ENE,4.6,-,N/A,,Overcast,70,2013-07-02 13:13:00
9:58 AM,64.2,64.2,100,30.08,10.0,NNE,3.5,-,N/A,,Overcast,30,2013-07-02 13:58:00
10:18 AM,64.4,64.4,100,30.08,10.0,NNE,5.8,-,N/A,,Overcast,30,2013-07-02 14:18:00
10:28 AM,64.4,64.4,100,30.08,10.0,NNE,4.6,-,N/A,,Overcast,20,2013-07-02 14:28:00
10:43 AM,64.4,64.4,100,30.09,10.0,North,4.6,-,N/A,,Overcast,350,2013-07-02 14:43:00
10:46 AM,64.4,64.4,100,30.09,9.0,North,4.6,-,N/A,Rain,Light Rain,360,2013-07-02 14:46:00
10:58 AM,64.9,64.8,99,30.09,10.0,North,4.6,-,0.00,,Light Drizzle,360,2013-07-02 14:58:00
11:00 AM,64.4,64.4,100,30.09,10.0,NNE,4.6,-,N/A,,Overcast,20,2013-07-02 15:00:00
11:40 AM,68.0,66.2,94,30.08,10.0,NNE,4.6,-,N/A,,Mostly Cloudy,30,2013-07-02 15:40:00
11:50 AM,69.8,66.2,88,30.08,10.0,NNE,4.6,-,N/A,,Mostly Cloudy,30,2013-07-02 15:50:00
11:55 AM,69.8,68.0,94,30.08,10.0,NE,5.8,-,N/A,,Scattered Clouds,50,2013-07-02 15:55:00
11:58 AM,69.8,67.3,92,30.08,10.0,NNE,5.8,-,0.00,,Scattered Clouds,20,2013-07-02 15:58:00
12:58 PM,73.6,68.2,83,30.07,10.0,NNE,5.8,-,N/A,,Mostly Cloudy,20,2013-07-02 16:58:00
1:58 PM,74.8,68.5,81,30.06,10.0,North,6.9,-,N/A,,Mostly Cloudy,360,2013-07-02 17:58:00
2:58 PM,75.9,69.3,80,30.06,10.0,NNE,5.8,-,N/A,,Mostly Cloudy,20,2013-07-02 18:58:00
3:13 PM,77.0,69.8,78,30.06,10.0,North,5.8,-,N/A,,Mostly Cloudy,10,2013-07-02 19:13:00
3:18 PM,77.0,69.8,78,30.06,10.0,North,5.8,-,N/A,,Mostly Cloudy,350,2013-07-02 19:18:00
3:58 PM,76.6,70.0,80,30.06,10.0,NE,4.6,-,N/A,,Overcast,50,2013-07-02 19:58:00
4:58 PM,75.2,69.8,83,30.06,10.0,NE,5.8,-,N/A,,Mostly Cloudy,40,2013-07-02 20:58:00
5:13 PM,77.0,69.8,78,30.06,10.0,NNE,6.9,-,N/A,,Mostly Cloudy,30,2013-07-02 21:13:00
5:58 PM,76.3,69.6,80,30.06,10.0,NNE,3.5,-,N/A,,Partly Cloudy,20,2013-07-02 21:58:00
6:58 PM,75.6,70.3,84,30.07,10.0,NNW,6.9,-,N/A,,Clear,340,2013-07-02 22:58:00
7:58 PM,72.9,70.3,92,30.08,10.0,NNW,3.5,-,N/A,,Clear,340,2013-07-02 23:58:00
8:58 PM,70.5,69.4,96,30.08,10.0,North,3.5,-,N/A,,Partly Cloudy,10,2013-07-03 00:58:00
9:27 PM,69.8,69.8,100,30.09,10.0,North,2.3,-,N/A,,Light Drizzle,350,2013-07-03 01:27:00
9:29 PM,69.8,69.8,100,30.09,10.0,NNW,2.3,-,N/A,,Scattered Clouds,340,2013-07-03 01:29:00
9:58 PM,70.2,69.6,98,30.10,10.0,NNE,4.6,-,0.00,,Scattered Clouds,20,2013-07-03 01:58:00
10:33 PM,69.8,69.8,100,30.09,9.0,North,2.3,-,N/A,,Scattered Clouds,350,2013-07-03 02:33:00
10:50 PM,68.0,68.0,100,30.10,5.0,NNW,5.8,-,N/A,Rain,Light Rain,340,2013-07-03 02:50:00
10:55 PM,68.0,68.0,100,30.10,3.0,NNW,6.9,-,N/A,Rain,Rain,340,2013-07-03 02:55:00
10:58 PM,68.0,68.0,100,30.10,3.0,NNW,5.8,-,0.02,Rain,Heavy Rain,340,2013-07-03 02:58:00
11:03 PM,68.0,68.0,100,30.10,4.0,NE,4.6,-,N/A,Rain,Rain,40,2013-07-03 03:03:00
11:08 PM,68.0,68.0,100,30.09,6.0,NNE,3.5,-,N/A,Rain,Light Rain,20,2013-07-03 03:08:00
11:13 PM,68.0,68.0,100,30.10,6.0,NW,2.3,-,N/A,,Light Drizzle,310,2013-07-03 03:13:00
11:14 PM,68.0,68.0,100,30.10,5.0,NW,3.5,-,N/A,,Mostly Cloudy,310,2013-07-03 03:14:00
11:19 PM,68.0,68.0,100,30.10,5.0,North,3.5,-,N/A,,Overcast,350,2013-07-03 03:19:00
11:24 PM,68.0,68.0,100,30.10,5.0,NE,3.5,-,N/A,,Mostly Cloudy,50,2013-07-03 03:24:00
11:29 PM,68.0,68.0,100,30.09,5.0,ENE,2.3,-,N/A,,Mostly Cloudy,70,2013-07-03 03:29:00
11:34 PM,68.0,68.0,100,30.09,6.0,East,3.5,-,N/A,,Mostly Cloudy,80,2013-07-03 03:34:00
11:58 PM,68.5,68.5,100,30.09,7.0,East,1.2,-,0.04,,Mostly Cloudy,100,2013-07-03 03:58:00